EST,Max TemperatureF,Mean TemperatureF,Min TemperatureF,Max Dew PointF,MeanDew PointF,Min DewpointF,Max Humidity, Mean Humidity, Min Humidity, Max Sea Level PressureIn, Mean Sea Level PressureIn, Min Sea Level PressureIn, Max VisibilityMiles, Mean VisibilityMiles, Min VisibilityMiles, Max Wind SpeedMPH, Mean Wind SpeedMPH, Max Gust SpeedMPH,PrecipitationIn, CloudCover, Events, WindDirDegrees
2012-12-1,35,28,20,34,22,16,96,87,77,30.59,30.53,30.43,9,6,1,9,3,13,0.05,8,Snow,62
2012-12-2,47,41,35,43,40,35,100,88,76,30.41,30.19,30.04,10,6,2,22,13,29,0.21,8,Rain,176
2012-12-3,50,39,28,45,39,29,100,86,71,30.29,30.20,30.05,10,9,5,16,6,21,T,6,Fog,279
2012-12-4,56,42,27,52,42,27,100,89,77,30.26,30.13,29.86,10,7,2,22,11,29,T,7,Fog-Rain,174
2012-12-5,55,42,28,52,32,14,89,69,49,30.27,30.06,29.89,10,9,6,30,12,39,0.12,6,Rain,292
2012-12-6,35,28,21,18,16,14,84,64,44,30.42,30.34,30.25,10,10,10,16,5,21,0.00,2,,327
2012-12-7,37,30,22,36,29,18,100,80,59,30.24,30.12,30.06,10,8,4,18,6,26,0.16,8,Rain,177
2012-12-8,46,41,36,43,38,35,100,95,89,30.03,29.93,29.84,10,2,0,13,3,18,0.10,8,Rain,192
2012-12-9,46,41,35,39,31,28,92,73,53,30.30,30.20,30.06,10,10,8,21,7,25,0.08,6,Rain,345
2012-12-10,51,45,38,50,42,36,100,91,82,30.03,29.73,29.51,10,7,2,20,10,25,0.44,8,Rain,187
2012-12-11,42,34,25,36,28,21,85,70,54,30.23,29.93,29.66,10,10,10,25,8,33,T,6,Rain,305
2012-12-12,41,30,19,26,22,17,92,73,54,30.44,30.36,30.24,10,10,9,7,1,10,0.00,3,,186
2012-12-13,43,33,22,28,24,19,96,73,49,30.50,30.42,30.30,10,10,7,7,1,8,0.00,2,,187
2012-12-14,44,34,24,31,26,21,85,67,49,30.29,30.21,30.14,10,10,10,17,7,22,0.00,4,,231
2012-12-15,40,33,25,29,22,15,85,71,56,30.36,30.30,30.22,10,10,10,13,7,17,0.00,4,,3
2012-12-16,35,30,25,30,23,15,89,79,68,30.25,30.13,30.00,10,10,8,14,5,22,0.01,8,Rain,98
2012-12-17,39,36,32,36,34,30,100,95,89,29.98,29.91,29.73,4,2,1,8,2,9,0.37,8,Rain,21
2012-12-18,44,40,36,43,39,33,100,90,79,29.68,29.53,29.45,10,4,0,21,5,26,0.67,8,Fog-Rain,312
2012-12-19,43,39,35,33,30,25,82,71,59,30.13,29.82,29.57,10,10,10,24,14,32,T,6,Rain,303
2012-12-20,39,33,26,34,26,20,85,72,59,30.26,30.10,29.86,10,10,8,16,5,22,0.04,5,Rain,80
2012-12-21,52,44,36,46,36,27,92,78,64,29.83,29.27,28.99,10,9,1,31,12,45,0.54,8,Rain,180
2012-12-22,38,33,28,29,21,16,70,64,58,29.77,29.51,29.21,10,10,10,31,16,44,T,8,Snow,285
2012-12-23,36,32,28,24,20,17,69,58,47,29.90,29.84,29.78,10,10,10,9,7,14,T,5,Snow,236
2012-12-24,37,32,26,24,20,17,81,64,47,30.12,30.03,29.91,10,10,10,20,6,28,T,7,Snow,308
2012-12-25,31,28,24,25,21,16,88,78,68,30.34,30.14,29.97,10,8,1,12,7,15,0.04,7,Snow,11
2012-12-26,25,22,18,23,16,12,88,78,68,30.38,30.18,29.83,10,7,0,15,7,18,0.29,7,Fog-Snow,14
2012-12-27,32,28,24,29,25,17,92,83,74,29.84,29.64,29.53,10,3,0,21,12,29,0.66,8,Fog-Snow,343
2012-12-28,31,27,23,23,20,16,78,73,68,30.11,30.02,29.86,10,10,10,21,12,26,T,7,Snow,289
2012-12-29,28,26,23,25,23,21,96,89,81,30.06,29.80,29.59,10,4,0,12,4,14,0.25,8,Fog-Snow,355
2012-12-30,28,23,18,25,13,9,92,74,55,30.18,29.90,29.61,10,9,1,33,16,41,0.02,6,Snow,299
2012-12-31,34,27,20,23,18,10,81,70,59,30.15,29.99,29.80,10,10,10,10,5,15,T,7,Snow,180